Погода в Жариковом

Россия / Приморский край     44°35′49″N   131°42′37″E
темп.,
°C
ветер,
м/с
пор.,
м/с
влажн.,
%
обл.,
%
осадки,
мм/ч
давл.,
гПа
погр.,
м
6 мая, чт
чт601:00+8ююз49795 0.0 1003162
04:00+7ююз410800 0.0 1002181
07:00+7ю37790 0.0 1004140
10:00+15ююз68455 0.0 10041035
13:00+21юз41026100 0.0 10033166
16:00+20ююв5738100 0.0 1001821
19:00+15ю51160100 0.0 1001306
22:00+11юз3585100 2.5 1006168
7 мая, пт
пт701:00+8ю36890 0.1 1005166
04:00+8ююз399134 0.1 1003228
07:00+8ююз4129092 0.0 1001343
10:00+13ю71169100 0.0 999754
13:00+15ю71160100 0.1 9951068
16:00+12ююв71673100 2.1 9911177
19:00+11ююв91382100 0.3 9871252
22:00+8ююз71288100 2.7 9881094
8 мая, сб
сб801:00+9зюз51290100 3.9 987671
04:00+10з71380100 6.5 990805
07:00+8з7147375 0.0 994800
10:00+12ююз5762100 0.0 994974
13:00+16ю5105195 0.1 9931898
16:00+16ююз5856100 0.2 9901560
19:00+11ю4893100 4.0 989434
22:00+9ююз4994100 4.4 989422
9 мая, вс
вс901:00+7з61186100 0.1 990726
04:00+5з61291100 0.1 989971
07:00+6зсз71388100 0.1 9901192
10:00+6зсз71384100 0.2 9921231
13:00+8зсз81371100 0.2 9941516
16:00+8зсз71373100 0.5 9961550
19:00+7сз61485100 0.3 9981388
22:00+6сз71486100 0.7 10001118
10 мая, пн
пн1001:00+6сз61288100 0.2 10021122
04:00+6сз61291100 0.3 10041064
07:00+6сз51291100 0.0 1006944
10:00+7сз51086100 0.0 1007918
13:00+9сз6979100 0.0 1009914
16:00+11ссз696899 0.0 10101075
19:00+11ссв477379 0.0 1011702
22:00+6всв359373 0.0 1013143